{"data":{"norad_id":52485,"intl_designator":"2022-049AL","name":"STARLINK-3913","alt_names":[],"object_type":"PAYLOAD","status":"ACTIVE","operator":null,"country":"US","launch_date":"2022-05-06","launch_site_code":"AFETR","launch_vehicle":null,"mission":null,"orbit_class":"UNKNOWN","rcs_meters":null,"size_class":null,"mass_kg":null,"dimensions":null,"purposes":["comms"],"wikipedia_slug":null,"has_3d_model":false,"image_url":null,"decayed_at":null,"tle_current":{"epoch":"2026-09-19T13:53:54.133728Z","epoch_age_seconds":142845,"freshness":"FRESH","line1":"1 52485U 22049AL  26262.57909877  .00000931  00000+0  39638-4 0  9996","line2":"2 52485  53.1597 248.0810 0001293  86.1209 273.9941 15.33551913241806","mean_motion":15.33551913,"eccentricity":0.0001293,"inclination_deg":53.1597,"raan_deg":248.081,"arg_perigee_deg":86.1209,"mean_anomaly_deg":273.9941,"bstar":3.9638e-5,"rev_number":24180,"period_min":93.899657898311,"perigee_km":464.34024837148,"apogee_km":466.10994180927,"semimajor_km":6843.3620950904,"source":"CELESTRAK","updated_at":"2026-09-20T09:00:40.054130Z"}}}